Time,TemperatureF,DewpointF,PressureIn,WindDirection,WindDirectionDegrees,WindSpeedMPH,WindSpeedGustMPH,Humidity,HourlyPrecipIn,Conditions,Clouds,dailyrainin,SolarRadiationWatts/m^2,SoftwareType,DateUTC
2013-01-14 00:04:00,47.0,47.0,-100.00,SW,220,11.0,19.0,99,0.00,,,0.03,0.000000,,2013-01-14 05:04:00,
2013-01-14 00:12:00,47.0,47.0,-100.00,SW,220,11.0,19.0,99,0.00,,,0.03,0.000000,,2013-01-14 05:12:00,
2013-01-14 00:22:00,47.0,47.0,-100.00,SW,220,11.0,19.0,99,0.00,,,0.03,0.000000,,2013-01-14 05:22:00,
2013-01-14 00:33:00,47.0,47.0,-100.00,SW,220,11.0,19.0,99,0.00,,,0.03,0.000000,,2013-01-14 05:33:00,
2013-01-14 01:03:00,47.0,47.0,-100.00,SW,221,10.0,20.0,99,0.00,,,0.03,0.000000,,2013-01-14 06:03:00,
2013-01-14 01:12:00,47.0,47.0,-100.00,SW,221,10.0,20.0,99,0.00,,,0.03,0.000000,,2013-01-14 06:12:00,
2013-01-14 01:23:00,47.0,47.0,-100.00,SW,221,10.0,20.0,99,0.00,,,0.03,0.000000,,2013-01-14 06:23:00,
2013-01-14 01:33:00,47.0,47.0,-100.00,SW,221,10.0,20.0,99,0.00,,,0.03,0.000000,,2013-01-14 06:33:00,
2013-01-14 01:53:00,47.0,47.0,-100.00,SW,220,10.0,19.0,99,0.00,,,0.03,0.000000,,2013-01-14 06:53:00,
2013-01-14 02:02:00,47.0,47.0,-100.00,SW,220,10.0,19.0,99,0.00,,,0.03,0.000000,,2013-01-14 07:02:00,
2013-01-14 02:12:00,47.0,47.0,-100.00,SW,220,10.0,19.0,99,0.00,,,0.03,0.000000,,2013-01-14 07:12:00,
2013-01-14 02:23:00,47.0,47.0,-100.00,SW,220,10.0,19.0,99,0.00,,,0.03,0.000000,,2013-01-14 07:23:00,
2013-01-14 02:33:00,47.0,47.0,-100.00,SW,220,10.0,19.0,99,0.00,,,0.03,0.000000,,2013-01-14 07:33:00,
2013-01-14 02:53:00,47.0,47.0,-100.00,SW,226,9.0,18.0,99,0.00,,,0.03,0.000000,,2013-01-14 07:53:00,
2013-01-14 03:02:00,47.0,47.0,-100.00,SW,226,9.0,18.0,99,0.00,,,0.03,0.000000,,2013-01-14 08:02:00,
2013-01-14 03:12:00,47.0,47.0,-100.00,SW,226,9.0,18.0,99,0.00,,,0.03,0.000000,,2013-01-14 08:12:00,
2013-01-14 03:22:00,47.0,47.0,-100.00,SW,226,9.0,18.0,99,0.00,,,0.03,0.000000,,2013-01-14 08:22:00,
2013-01-14 03:33:00,47.0,47.0,-100.00,SW,226,9.0,18.0,99,0.00,,,0.03,0.000000,,2013-01-14 08:33:00,
2013-01-14 03:53:00,47.0,47.0,-100.00,SW,224,9.0,16.0,99,0.00,,,0.02,0.000000,,2013-01-14 08:53:00,
2013-01-14 04:03:00,47.0,47.0,-100.00,SW,224,9.0,16.0,99,0.00,,,0.02,0.000000,,2013-01-14 09:03:00,
2013-01-14 04:12:00,47.0,47.0,-100.00,SW,224,9.0,16.0,99,0.00,,,0.02,0.000000,,2013-01-14 09:12:00,
2013-01-14 04:23:00,47.0,47.0,-100.00,SW,224,9.0,16.0,99,0.00,,,0.02,0.000000,,2013-01-14 09:23:00,
2013-01-14 04:33:00,47.0,47.0,-100.00,SW,224,9.0,16.0,99,0.00,,,0.02,0.000000,,2013-01-14 09:33:00,
2013-01-14 04:53:00,47.0,47.0,-100.00,SW,220,9.0,18.0,99,0.00,,,0.02,0.000000,,2013-01-14 09:53:00,
2013-01-14 05:03:00,47.0,47.0,-100.00,SW,220,9.0,18.0,99,0.00,,,0.02,0.000000,,2013-01-14 10:03:00,
2013-01-14 05:12:00,47.0,47.0,-100.00,SW,220,9.0,18.0,99,0.00,,,0.02,0.000000,,2013-01-14 10:12:00,
2013-01-14 05:23:00,47.0,47.0,-100.00,SW,220,9.0,18.0,99,0.00,,,0.02,0.000000,,2013-01-14 10:23:00,
2013-01-14 05:32:00,47.0,47.0,-100.00,SW,220,9.0,18.0,99,0.00,,,0.02,0.000000,,2013-01-14 10:32:00,
2013-01-14 05:53:00,47.0,47.0,-100.00,SW,224,8.0,19.0,99,0.00,,,0.02,0.000000,,2013-01-14 10:53:00,
2013-01-14 06:02:00,47.0,47.0,-100.00,SW,224,8.0,19.0,99,0.00,,,0.02,0.000000,,2013-01-14 11:02:00,
2013-01-14 06:12:00,47.0,47.0,-100.00,SW,224,8.0,19.0,99,0.00,,,0.02,0.000000,,2013-01-14 11:12:00,
2013-01-14 06:22:00,47.0,47.0,-100.00,SW,224,8.0,19.0,99,0.00,,,0.02,0.000000,,2013-01-14 11:22:00,
2013-01-14 06:33:00,47.0,47.0,-100.00,SW,224,8.0,19.0,99,0.00,,,0.02,0.000000,,2013-01-14 11:33:00,
2013-01-14 06:53:00,48.0,48.0,-100.00,SW,219,9.0,17.0,99,0.00,,,0.02,0.000000,,2013-01-14 11:53:00,
2013-01-14 07:03:00,48.0,48.0,-100.00,SW,219,9.0,17.0,99,0.00,,,0.02,0.000000,,2013-01-14 12:03:00,
2013-01-14 07:12:00,48.0,48.0,-100.00,SW,219,9.0,17.0,99,0.00,,,0.02,0.000000,,2013-01-14 12:12:00,
2013-01-14 07:23:00,48.0,48.0,-100.00,SW,219,9.0,17.0,99,0.00,,,0.02,0.000000,,2013-01-14 12:23:00,
2013-01-14 07:33:00,48.0,48.0,-100.00,SW,219,9.0,17.0,99,0.00,,,0.02,0.000000,,2013-01-14 12:33:00,
2013-01-14 07:53:00,48.0,48.0,-100.00,SW,223,8.0,15.0,99,0.00,,,0.02,2.000000,,2013-01-14 12:53:00,
2013-01-14 08:03:00,48.0,48.0,-100.00,SW,223,8.0,15.0,99,0.00,,,0.02,2.000000,,2013-01-14 13:03:00,
2013-01-14 08:13:00,48.0,48.0,-100.00,SW,223,8.0,15.0,99,0.00,,,0.02,2.000000,,2013-01-14 13:13:00,
2013-01-14 08:23:00,48.0,48.0,-100.00,SW,223,8.0,15.0,99,0.00,,,0.02,2.000000,,2013-01-14 13:23:00,
2013-01-14 08:33:00,48.0,48.0,-100.00,SW,223,8.0,15.0,99,0.00,,,0.02,2.000000,,2013-01-14 13:33:00,
2013-01-14 08:53:00,48.0,48.0,-100.00,SW,223,10.0,17.0,99,0.00,,,0.01,10.000000,,2013-01-14 13:53:00,
2013-01-14 09:03:00,48.0,48.0,-100.00,SW,223,10.0,17.0,99,0.00,,,0.01,10.000000,,2013-01-14 14:03:00,
2013-01-14 09:13:00,48.0,48.0,-100.00,SW,223,10.0,17.0,99,0.00,,,0.01,10.000000,,2013-01-14 14:13:00,
2013-01-14 09:23:00,48.0,48.0,-100.00,SW,223,10.0,17.0,99,0.00,,,0.01,10.000000,,2013-01-14 14:23:00,
2013-01-14 09:33:00,48.0,48.0,-100.00,SW,223,10.0,17.0,99,0.00,,,0.01,10.000000,,2013-01-14 14:33:00,
2013-01-14 10:03:00,48.0,48.0,-100.00,SW,217,9.0,17.0,99,0.00,,,0.01,34.000000,,2013-01-14 15:03:00,
2013-01-14 10:12:00,48.0,48.0,-100.00,SW,217,9.0,17.0,99,0.00,,,0.01,34.000000,,2013-01-14 15:12:00,
2013-01-14 10:23:00,48.0,48.0,-100.00,SW,217,9.0,17.0,99,0.00,,,0.01,34.000000,,2013-01-14 15:23:00,
2013-01-14 10:33:00,48.0,48.0,-100.00,SW,217,9.0,17.0,99,0.00,,,0.01,34.000000,,2013-01-14 15:33:00,
2013-01-14 11:03:00,48.0,48.0,-100.00,SW,229,8.0,17.0,99,0.00,,,0.01,78.000000,,2013-01-14 16:03:00,
2013-01-14 11:13:00,48.0,48.0,-100.00,SW,229,8.0,17.0,99,0.00,,,0.01,78.000000,,2013-01-14 16:13:00,
2013-01-14 11:23:00,48.0,48.0,-100.00,SW,229,8.0,17.0,99,0.00,,,0.01,78.000000,,2013-01-14 16:23:00,
2013-01-14 11:33:00,48.0,48.0,-100.00,SW,229,8.0,17.0,99,0.00,,,0.01,78.000000,,2013-01-14 16:33:00,
2013-01-14 12:03:00,46.0,46.0,-100.00,SW,227,8.0,16.0,99,0.00,,,0.01,128.000000,,2013-01-14 17:03:00,
2013-01-14 12:12:00,46.0,46.0,-100.00,SW,227,8.0,16.0,99,0.00,,,0.01,128.000000,,2013-01-14 17:12:00,
2013-01-14 12:23:00,46.0,46.0,-100.00,SW,227,8.0,16.0,99,0.00,,,0.01,128.000000,,2013-01-14 17:23:00,
2013-01-14 12:33:00,46.0,46.0,-100.00,SW,227,8.0,16.0,99,0.00,,,0.01,128.000000,,2013-01-14 17:33:00,
2013-01-14 12:54:00,46.0,46.0,-100.00,SW,236,6.0,17.0,99,0.00,,,0.01,103.000000,,2013-01-14 17:54:00,
2013-01-14 13:03:00,46.0,46.0,-100.00,SW,236,6.0,17.0,99,0.00,,,0.01,103.000000,,2013-01-14 18:03:00,
2013-01-14 13:13:00,46.0,46.0,-100.00,SW,236,6.0,17.0,99,0.00,,,0.01,103.000000,,2013-01-14 18:13:00,
2013-01-14 13:23:00,46.0,46.0,-100.00,SW,236,6.0,17.0,99,0.00,,,0.01,103.000000,,2013-01-14 18:23:00,
2013-01-14 13:33:00,46.0,46.0,-100.00,SW,236,6.0,17.0,99,0.00,,,0.01,103.000000,,2013-01-14 18:33:00,
2013-01-14 14:03:00,47.0,46.0,-100.00,SW,231,8.0,14.0,98,0.00,,,0.01,175.000000,,2013-01-14 19:03:00,
2013-01-14 14:13:00,47.0,46.0,-100.00,SW,231,8.0,14.0,98,0.00,,,0.01,175.000000,,2013-01-14 19:13:00,
2013-01-14 14:22:00,47.0,46.0,-100.00,SW,231,8.0,14.0,98,0.00,,,0.01,175.000000,,2013-01-14 19:22:00,
2013-01-14 14:33:00,47.0,46.0,-100.00,SW,231,8.0,14.0,98,0.00,,,0.01,175.000000,,2013-01-14 19:33:00,
2013-01-14 15:04:00,47.0,45.0,-100.00,SW,226,5.0,14.0,94,0.00,,,0.01,214.000000,,2013-01-14 20:04:00,
2013-01-14 15:13:00,47.0,45.0,-100.00,SW,226,5.0,14.0,94,0.00,,,0.01,214.000000,,2013-01-14 20:13:00,
2013-01-14 15:23:00,47.0,45.0,-100.00,SW,226,5.0,14.0,94,0.00,,,0.01,214.000000,,2013-01-14 20:23:00,
2013-01-14 15:33:00,47.0,45.0,-100.00,SW,226,5.0,14.0,94,0.00,,,0.01,214.000000,,2013-01-14 20:33:00,
2013-01-14 15:53:00,48.0,46.0,-100.00,North,356,2.0,8.0,94,0.00,,,0.01,109.000000,,2013-01-14 20:53:00,
2013-01-14 16:03:00,48.0,46.0,-100.00,North,356,2.0,8.0,94,0.00,,,0.01,109.000000,,2013-01-14 21:03:00,
2013-01-14 16:13:00,48.0,46.0,-100.00,North,356,2.0,8.0,94,0.00,,,0.01,109.000000,,2013-01-14 21:13:00,
2013-01-14 16:23:00,48.0,46.0,-100.00,North,356,2.0,8.0,94,0.00,,,0.01,109.000000,,2013-01-14 21:23:00,
2013-01-14 16:33:00,48.0,46.0,-100.00,North,356,2.0,8.0,94,0.00,,,0.01,109.000000,,2013-01-14 21:33:00,
2013-01-14 17:03:00,44.0,38.0,-100.00,NNW,340,4.0,8.0,79,0.00,,,0.01,12.000000,,2013-01-14 22:03:00,
2013-01-14 17:12:00,44.0,38.0,-100.00,NNW,340,4.0,8.0,79,0.00,,,0.01,12.000000,,2013-01-14 22:12:00,
2013-01-14 17:23:00,44.0,38.0,-100.00,NNW,340,4.0,8.0,79,0.00,,,0.01,12.000000,,2013-01-14 22:23:00,
2013-01-14 17:33:00,44.0,38.0,-100.00,NNW,340,4.0,8.0,79,0.00,,,0.01,12.000000,,2013-01-14 22:33:00,
2013-01-14 18:03:00,43.0,31.0,-100.00,NNW,342,9.0,17.0,62,0.00,,,0.01,0.000000,,2013-01-14 23:03:00,
2013-01-14 18:12:00,43.0,31.0,-100.00,NNW,342,9.0,17.0,62,0.00,,,0.01,0.000000,,2013-01-14 23:12:00,
2013-01-14 18:23:00,43.0,31.0,-100.00,NNW,342,9.0,17.0,62,0.00,,,0.01,0.000000,,2013-01-14 23:23:00,
2013-01-14 18:33:00,43.0,31.0,-100.00,NNW,342,9.0,17.0,62,0.00,,,0.01,0.000000,,2013-01-14 23:33:00,
2013-01-14 19:03:00,42.0,30.0,-100.00,NNW,344,6.0,23.0,61,0.00,,,0.01,0.000000,,2013-01-15 00:03:00,
2013-01-14 19:12:00,42.0,30.0,-100.00,NNW,344,6.0,23.0,61,0.00,,,0.01,0.000000,,2013-01-15 00:12:00,
2013-01-14 19:23:00,42.0,30.0,-100.00,NNW,344,6.0,23.0,61,0.00,,,0.01,0.000000,,2013-01-15 00:23:00,
2013-01-14 19:33:00,42.0,30.0,-100.00,NNW,344,6.0,23.0,61,0.00,,,0.01,0.000000,,2013-01-15 00:33:00,
2013-01-14 19:53:00,40.0,28.0,-100.00,NNW,336,5.0,18.0,62,0.00,,,-99.99,0.000000,,2013-01-15 00:53:00,
2013-01-14 20:02:00,40.0,28.0,-100.00,NNW,336,5.0,18.0,62,0.00,,,-99.99,0.000000,,2013-01-15 01:02:00,
2013-01-14 20:12:00,40.0,28.0,-100.00,NNW,336,5.0,18.0,62,0.00,,,-99.99,0.000000,,2013-01-15 01:12:00,
2013-01-14 20:23:00,40.0,28.0,-100.00,NNW,336,5.0,18.0,62,0.00,,,-99.99,0.000000,,2013-01-15 01:23:00,
2013-01-14 20:32:00,40.0,28.0,-100.00,NNW,336,5.0,18.0,62,0.00,,,-99.99,0.000000,,2013-01-15 01:32:00,
2013-01-14 20:53:00,40.0,28.0,-100.00,NNW,338,7.0,17.0,62,0.00,,,0.00,0.000000,,2013-01-15 01:53:00,
2013-01-14 21:03:00,40.0,28.0,-100.00,NNW,338,7.0,17.0,62,0.00,,,0.00,0.000000,,2013-01-15 02:03:00,
2013-01-14 21:12:00,40.0,28.0,-100.00,NNW,338,7.0,17.0,62,0.00,,,0.00,0.000000,,2013-01-15 02:12:00,
2013-01-14 21:23:00,40.0,28.0,-100.00,NNW,338,7.0,17.0,62,0.00,,,0.00,0.000000,,2013-01-15 02:23:00,
2013-01-14 21:33:00,40.0,28.0,-100.00,NNW,338,7.0,17.0,62,0.00,,,0.00,0.000000,,2013-01-15 02:33:00,
2013-01-14 22:03:00,39.0,27.0,-100.00,North,350,5.0,16.0,62,0.00,,,0.00,0.000000,,2013-01-15 03:03:00,
2013-01-14 22:12:00,39.0,27.0,-100.00,North,350,5.0,16.0,62,0.00,,,0.00,0.000000,,2013-01-15 03:12:00,
2013-01-14 22:22:00,39.0,27.0,-100.00,North,350,5.0,16.0,62,0.00,,,0.00,0.000000,,2013-01-15 03:22:00,
2013-01-14 22:33:00,39.0,27.0,-100.00,North,350,5.0,16.0,62,0.00,,,0.00,0.000000,,2013-01-15 03:33:00,
2013-01-14 22:53:00,38.0,27.0,-100.00,North,354,3.0,13.0,63,0.00,,,0.00,0.000000,,2013-01-15 03:53:00,
2013-01-14 23:03:00,38.0,27.0,-100.00,North,354,3.0,13.0,63,0.00,,,0.00,0.000000,,2013-01-15 04:03:00,
2013-01-14 23:12:00,38.0,27.0,-100.00,North,354,3.0,13.0,63,0.00,,,0.00,0.000000,,2013-01-15 04:12:00,
2013-01-14 23:22:00,38.0,27.0,-100.00,North,354,3.0,13.0,63,0.00,,,0.00,0.000000,,2013-01-15 04:22:00,
2013-01-14 23:32:00,38.0,27.0,-100.00,North,354,3.0,13.0,63,0.00,,,0.00,0.000000,,2013-01-15 04:32:00,